Flag for U.S.A. Weather past 2 weeks in Aliso Viejo, California, U.S.A.

Now
56 °F

Broken clouds.


Feels Like: 55 °F
Forecast: 51 / 58 °F
Wind: 5 mph from East

Location: John Wayne Airport-Orange County Airport

Current Time: Mar 2, 2015 at 8:40:44 AM

Latest Report: Mar 2, 2015 at 7:53 AM


Visibility: 10 mi

Pressure: 29.91 "Hg

Humidity: 65%

Dew point: 44 °F

Location of Aliso ViejoLocation

Historic Weather in Aliso Viejo — Graph

°F

Aliso Viejo temperature yesterday

Maximum temperature yesterday: 64 °F (at 1:53 PM)
Minimum temperature yesterday: 54 °F (at 5:53 AM)
Average temperature yesterday: 59 °F

Past Weeks' High & Low Weather Summary

 TemperatureHumidityPressure
High76 °F (Feb 15, 12:53 PM)88% (Feb 26, 6:02 AM)30.23 "Hg (Feb 26, 6:02 AM)
Low51 °F (Feb 24, 4:53 AM)13% (Feb 24, 12:53 PM)29.76 "Hg (Feb 27, 3:53 PM)
Average63 °F62%29.98 "Hg
* Reported Feb 15 6:53 AM — Mar 2 6:53 AM, Aliso Viejo, Weather by CustomWeather, © 2015

Note: Actual official high and low records may vary slightly from our data, if they occured in-between our weather recording intervals... More about our weather records

Advertising

Aliso Viejo weather history for previous 24 hours

 ConditionsComfort  
Time TempWeatherWind HumidityBarometerVisibility
6:53 AM
Mon, Mar 2
53 °FScattered clouds.5 mph74%29.90 "Hg10 mi
5:53 AM53 °FOvercast.No wind74%29.89 "Hg10 mi
4:53 AM52 °FPassing clouds.6 mph77%29.89 "Hg10 mi
3:53 AM52 °FPassing clouds.6 mph80%29.89 "Hg10 mi
2:53 AM52 °FRain. Mostly cloudy.3 mph80%29.91 "Hg4 mi
1:53 AM56 °FMostly cloudy.3 mph65%29.91 "Hg10 mi
12:53 AM55 °FClear.5 mph67%29.93 "Hg10 mi
11:53 PM
Sun, Mar 1
56 °FPassing clouds.No wind65%29.93 "Hg10 mi
10:53 PM57 °FPartly cloudy.5 mph62%29.94 "Hg10 mi
9:53 PM58 °FPassing clouds.6 mph60%29.95 "Hg10 mi
8:53 PM58 °FPartly cloudy.6 mph60%29.94 "Hg10 mi
7:53 PM58 °FLight rain. Partly cloudy.7 mph65%29.93 "Hg10 mi
6:53 PM60 °FMostly cloudy.7 mph56%29.92 "Hg10 mi
5:53 PM61 °FPassing clouds.7 mph50%29.91 "Hg10 mi
4:53 PM62 °FBroken clouds.10 mph52%29.90 "Hg10 mi
3:53 PM63 °FPartly sunny.10 mph52%29.89 "Hg10 mi
2:53 PM64 °FBroken clouds.7 mph49%29.88 "Hg10 mi
1:53 PM64 °FBroken clouds.7 mph49%29.90 "Hg10 mi
12:53 PM63 °FMore clouds than sun.8 mph58%29.91 "Hg10 mi
11:53 AM62 °FMostly cloudy.7 mph54%29.93 "Hg10 mi
10:53 AM61 °FMostly cloudy.8 mph60%29.93 "Hg10 mi
9:53 AM61 °FOvercast.7 mph67%29.95 "Hg10 mi
8:53 AM59 °FPartly sunny.No wind64%29.94 "Hg10 mi
Weather by CustomWeather, © 2015

See weather overviewHow to use our weather pages